Flag for U.S.A. Weather past 2 weeks in Fort Collins, Colorado, U.S.A.

Now
63 °F

Sunny.


Feels Like: 63 °F
Forecast: 42 / 60 °F
Wind: 12 mph from Southeast

Location: Fort Collins-Loveland Municipal Airport

Current Time: Oct 1, 2014 at 1:12:59 PM

Latest Report: Oct 1, 2014 at 12:35 PM


Visibility: 10 mi

Pressure: 29.87 "Hg

Humidity: 49%

Dew point: 43 °F

Location of Fort CollinsLocation

Historic Weather in Fort Collins — Graph

°F

Fort Collins temperature yesterday

Maximum temperature yesterday: 66 °F (at 1:35 PM)
Minimum temperature yesterday: 43 °F (at 6:35 AM)
Average temperature yesterday: 54 °F

Past Weeks' High & Low Weather Summary

 TemperatureHumidityPressure
High90 °F (Sep 16, 3:15 PM)94% (Sep 29, 7:35 AM)30.41 "Hg (Sep 29, 7:35 AM)
Low43 °F (Sep 30, 6:35 AM)14% (Sep 18, 5:35 PM)29.80 "Hg (Sep 30, 2:35 PM)
Average65 °F53%30.07 "Hg
* Reported Sep 16 11:15 AM — Oct 1 11:55 AM, Fort Collins, Weather by CustomWeather, © 2014

Note: Actual official high and low records may vary slightly from our data, if they occured in-between our weather recording intervals... More about our weather records

Advertising

Fort Collins weather history for previous 24 hours

 ConditionsComfort  
Time TempWeatherWind HumidityBarometerVisibility
11:55 AM
Oct 1
61 °FSunny.9 mph48%29.89 "Hg10 mi
11:35 AM61 °FSunny.12 mph48%29.89 "Hg10 mi
11:15 AM61 °FSunny.9 mph52%29.90 "Hg10 mi
10:55 AM59 °FSunny.8 mph55%29.90 "Hg10 mi
10:35 AM55 °FSunny.6 mph59%29.91 "Hg10 mi
10:15 AM55 °FSunny.7 mph63%29.91 "Hg10 mi
9:55 AM54 °FSunny.6 mph63%29.91 "Hg10 mi
9:35 AM54 °FSunny.7 mph67%29.91 "Hg10 mi
9:15 AM54 °FSunny.6 mph63%29.91 "Hg10 mi
8:55 AM54 °FSunny.5 mph67%29.92 "Hg10 mi
8:35 AM54 °FSunny.No wind58%29.91 "Hg10 mi
8:15 AM52 °FSunny.No wind77%29.91 "Hg10 mi
7:55 AM46 °FClear.5 mph82%29.91 "Hg10 mi
7:35 AM45 °FClear.7 mph81%29.90 "Hg10 mi
7:15 AM45 °FClear.7 mph81%29.90 "Hg10 mi
6:55 AM45 °FClear.6 mph87%29.90 "Hg10 mi
6:35 AM46 °FClear.6 mph82%29.90 "Hg10 mi
5:55 AM45 °FClear.No wind81%29.89 "Hg10 mi
5:35 AM48 °FClear.3 mph82%29.89 "Hg10 mi
5:15 AM45 °FClear.No wind81%29.89 "Hg10 mi
4:55 AM45 °FClear.No wind87%29.88 "Hg10 mi
4:35 AM46 °FClear.6 mph82%29.88 "Hg10 mi
4:15 AM46 °FPassing clouds.3 mph82%29.88 "Hg10 mi
3:55 AM46 °FPassing clouds.6 mph76%29.88 "Hg10 mi
3:35 AM46 °FClear.5 mph76%29.87 "Hg10 mi
3:15 AM46 °FClear.No wind76%29.88 "Hg10 mi
2:55 AM48 °FClear.No wind71%29.88 "Hg10 mi
2:35 AM48 °FClear.6 mph71%29.88 "Hg10 mi
2:15 AM48 °FClear.8 mph71%29.88 "Hg10 mi
1:55 AM48 °FClear.7 mph71%29.89 "Hg10 mi
1:35 AM48 °FClear.No wind71%29.88 "Hg10 mi
1:15 AM50 °FClear.5 mph67%29.87 "Hg10 mi
12:55 AM52 °FClear.No wind67%29.88 "Hg10 mi
12:35 AM52 °FClear.7 mph62%29.87 "Hg10 mi
11:55 PM
Sep 30
50 °FClear.8 mph67%29.87 "Hg10 mi
11:35 PM52 °FClear.9 mph67%29.87 "Hg10 mi
11:15 PM54 °FPassing clouds.6 mph63%29.87 "Hg10 mi
10:55 PM54 °FPassing clouds.8 mph63%29.87 "Hg10 mi
10:35 PM55 °FClear.3 mph59%29.88 "Hg10 mi
10:15 PM57 °FClear.7 mph51%29.88 "Hg10 mi
9:55 PM57 °FClear.No wind51%29.88 "Hg10 mi
9:35 PM55 °FClear.6 mph59%29.88 "Hg10 mi
9:15 PM57 °FClear.No wind51%29.88 "Hg10 mi
8:55 PM57 °FClear.3 mph51%29.88 "Hg10 mi
8:35 PM57 °FPassing clouds.5 mph51%29.88 "Hg10 mi
8:15 PM59 °FPassing clouds.6 mph48%29.87 "Hg9 mi
7:55 PM59 °FPassing clouds.6 mph45%29.86 "Hg10 mi
7:35 PM59 °FPassing clouds.5 mph48%29.86 "Hg10 mi
7:15 PM61 °FPassing clouds.6 mph45%29.85 "Hg10 mi
6:55 PM59 °FSunny.No wind51%29.84 "Hg10 mi
6:35 PM59 °FPassing clouds.No wind51%29.83 "Hg10 mi
6:15 PM61 °FPassing clouds.6 mph48%29.83 "Hg10 mi
5:55 PM61 °FPassing clouds.No wind45%29.82 "Hg10 mi
5:35 PM63 °FSunny.No wind42%29.82 "Hg10 mi
5:15 PM63 °FSunny.No wind39%29.81 "Hg10 mi
4:55 PM63 °FSunny.No wind39%29.81 "Hg10 mi
4:35 PM64 °FSunny.No wind34%29.81 "Hg10 mi
4:15 PM64 °FSunny.3 mph34%29.81 "Hg10 mi
3:55 PM64 °FSunny.9 mph34%29.81 "Hg10 mi
3:35 PM64 °FSunny.14 mph34%29.81 "Hg10 mi
3:15 PM64 °FSunny.13 mph34%29.81 "Hg10 mi
2:35 PM66 °FSunny.16 mph30%29.80 "Hg10 mi
2:15 PM66 °FSunny.8 mph32%29.82 "Hg10 mi
1:55 PM66 °FSunny.13 mph35%29.82 "Hg10 mi
1:35 PM66 °FSunny.15 mph32%29.83 "Hg10 mi
1:15 PM63 °FSunny.21 mph34%29.84 "Hg10 mi
Weather by CustomWeather, © 2014

See weather overviewHow to use our weather pages